Regional Weather Roundup
Issued by NWS

Home | Current Version | Previous Version | Graphics & Text | Print | Product List | Glossary On
Versions: 1 2 3 4 5 6 7 8 9 10 11 12 13 14 15 16 17 18 19 20 21 22 23 24 25 26 27 28 29 30 31 32 33 34 35 36 37 38 39 40 41 42 43 44 45 46 47 48 49 50
000
ASUS45 KABQ 222210
RWRNM
NEW MEXICO REGIONAL WEATHER ROUNDUP
NATIONAL WEATHER SERVICE ALBUQUERQUE NM
400 PM MDT SUN OCT 22 2017

NOTE: "FAIR" MEANS FEW OR NO CLOUDS BELOW 12,000 FEET AGL WITH NO
       SIGNIFICANT WEATHER OR OBSTRUCTIONS TO VISION.

      THIS PRODUCT IS RELEASED AS TWO VERSIONS.  ONE VERSION NEAR
      THE TOP OF THE HOUR CONTAINING PRELIMINARY DATA FROM ALBUQUERQUE
      AND OTHER STATIONS.  A FINAL VERSION WITH ADDITIONAL DATA IS
      ISSUED ABOUT 10 MINUTES AFTER THE HOUR.

NMZ501-503-504-510>518-222300-
NORTHWEST PLATEAU/NORTHCENTRAL MOUNTAINS

CITY           SKY/WX    TMP DP  RH WIND       PRES   REMARKS
FARMINGTON     FAIR      65  20  17 W18G29    30.35S
LOS ALAMOS     FAIR      59  17  19 E6        30.37S
SANTA FE       FAIR      62  17  17 CALM      30.32F
TAOS           FAIR      61  16  17 SW6       30.38F
ANGEL FIRE     FAIR      57  18  22 W15       30.38S

$$
NMZ402-403-502-505>509-222300-
WESTCENTRAL MOUNTAINS/SOUTHWEST MOUNTAINS

CITY           SKY/WX    TMP DP  RH WIND       PRES   REMARKS
GALLUP         FAIR      71  22  15 W8        30.40F
GRANTS         FAIR      68  20  16 NW13G21   30.41F
SILVER CITY    FAIR      74  16  11 SW10      30.33S

$$
NMZ407-409-411-412-222300-
SOUTHERN DESERTS

CITY           SKY/WX    TMP DP  RH WIND       PRES   REMARKS
DEMING         FAIR      76  17  11 SW7       30.28F
LAS CRUCES     FAIR      76  13   9 W5        30.29F
HOLLOMAN AFB   FAIR      74  18  12 NE7       30.27F
ALAMOGORDO     FAIR      73  18  12 N8        30.28F
T OR C         FAIR      72  16  12 VRB5      30.29F

$$
NMZ519>523-222300-
CENTRAL VALLEYS/CENTRAL HIGHLANDS

CITY           SKY/WX    TMP DP  RH WIND       PRES   REMARKS
ALBUQUERQUE    FAIR      67  18  15 W8        30.32F
DOUBLE EAGLE   MOSUNNY   66  19  16 W7        30.34F
MORIARTY ARPT  FAIR      69  24  18 NW14G22   30.31F
CLINES CORNERS FAIR      61  18  18 NW22G40   30.33R
BELEN          FAIR      69  18  14 E8        30.30F
SOCORRO        FAIR      71  17  12 NE3       30.29F

$$
NMZ524>526-539-540-222300-
SOUTHCENTRAL MOUNTAINS

CITY           SKY/WX    TMP DP  RH WIND       PRES   REMARKS
RUIDOSO        FAIR      64  19  17 NW18G26   30.36F

$$
NMZ527>531-222300-
NORTHEAST HIGHLANDS/NORTHEAST PLAINS

CITY           SKY/WX    TMP DP  RH WIND       PRES   REMARKS
LAS VEGAS      FAIR      66  20  17 S10       30.27F
RATON          FAIR      63  28  26 VRB5      30.21F
CLAYTON        FAIR      64  27  24 SW16      30.18F

$$
NMZ532>537-222300-
EASTCENTRAL PLAINS

CITY           SKY/WX    TMP DP  RH WIND       PRES   REMARKS
SANTA ROSA     FAIR      73  22  15 W14       30.18F
TUCUMCARI      FAIR      71  21  15 SW9       30.16F
CANNON AFB     SUNNY     68  26  20 SW12G20   30.23F
CLOVIS AIRPORT   N/A     68  29  23 SW14      30.22F

$$
NMZ028-029-538-222300-
SOUTHEAST PLAINS

CITY           SKY/WX    TMP DP  RH WIND       PRES   REMARKS
ROSWELL        FAIR      71  29  21 S12       30.21F
ARTESIA        FAIR      70  32  24 S14       30.21F
CARLSBAD       FAIR      71  35  26 SE12      30.21F
HOBBS          SUNNY     70  27  19 S8        30.24F


$$



USA.gov is the U.S. government's official web portal to all federal, state and local government web resources and services.